This is the latest recevied weather packets stored in our database for station/object BV5AB-13. If no packets are shown the sender has not sent any weather packets the latest 10 day(s).
| Time | Temp. | Humidity | Pressure | Rain* | Wind** | Luminosity | Snow |
|---|---|---|---|---|---|---|---|
| 1777174624 | 27.78° C | 52% | 1004.2 hPa | 0 mm | - | - | - |
| 1777174024 | 27.78° C | 55% | 1004.3 hPa | 0 mm | - | - | - |
| 1777173424 | 27.22° C | 53% | 1004.3 hPa | 0 mm | - | - | - |
| 1777172824 | 27.78° C | 55% | 1004.4 hPa | 0 mm | - | - | - |
| 1777172224 | 27.22° C | 54% | 1004.4 hPa | 0 mm | - | - | - |
| 1777171624 | 26.67° C | 54% | 1004.6 hPa | 0 mm | - | - | - |
| 1777171025 | 27.22° C | 56% | 1004.6 hPa | 0 mm | - | - | - |
| 1777170424 | 27.22° C | 54% | 1004.5 hPa | 0 mm | - | - | - |
| 1777169824 | 26.67° C | 56% | 1004.5 hPa | 0 mm | - | - | - |
| 1777169224 | 26.67° C | 60% | 1004.6 hPa | 0 mm | - | - | - |
| 1777168625 | 26.67° C | 66% | 1004.6 hPa | 0 mm | - | - | - |
| 1777168025 | 26.11° C | 66% | 1004.8 hPa | 0 mm | - | - | - |
| 1777167424 | 25.56° C | 68% | 1004.9 hPa | 0 mm | - | - | - |
| 1777166823 | 26.11° C | 68% | 1004.9 hPa | 0 mm | - | - | - |
| 1777166223 | 25.56° C | 71% | 1004.9 hPa | 0 mm | - | - | - |
| 1777165623 | 25° C | 73% | 1004.9 hPa | 0 mm | - | - | - |
| 1777165023 | 24.44° C | 73% | 1005 hPa | 0 mm | - | - | - |
| 1777164424 | 24.44° C | 77% | 1004.8 hPa | 0 mm | - | - | - |
| 1777163824 | 23.89° C | 77% | 1004.7 hPa | 0 mm | - | - | - |
| 1777163224 | 23.89° C | 78% | 1004.7 hPa | 0 mm | - | - | - |
| 1777162624 | 23.33° C | 80% | 1004.7 hPa | 0 mm | - | - | - |
| 1777162024 | 22.78° C | 81% | 1004.7 hPa | 0 mm | - | - | - |
* Rain latest hour (hover to see other rain measurements)
** Current wind speed in m/s (hover to see current wind gust speed)